| time (UTC) | temp F | wind direction | speed MPH | gust MPH | rain 1hr in | rain 24hr in | rain mn in | humidity % | barometer mb |
| 20260831114531 | 0 | 117 | 0.0 | 0.0 | 0.00 | 0.00 | 0.00 | 1020.5 | |
| 20260831113021 | 0 | 117 | 0.0 | 0.0 | 0.00 | 0.00 | 0.00 | 1020.4 | |
| 20260831111517 | 0 | 117 | 0.0 | 0.0 | 0.00 | 0.00 | 0.00 | 1020.4 | |
| 20260831110013 | 0 | 117 | 0.0 | 0.0 | 0.00 | 0.00 | 0.00 | 1020.3 | |
| 20260831104511 | 0 | 117 | 0.0 | 0.0 | 0.00 | 0.00 | 0.00 | 1020.2 | |
| 20260831103004 | 0 | 117 | 0.0 | 0.0 | 0.00 | 0.00 | 0.00 | 1020.3 | |
| 20260831101700 | 0 | 117 | 0.0 | 0.0 | 0.00 | 0.00 | 0.00 | 1020.0 | |
| 20260831094550 | 0 | 117 | 0.0 | 0.0 | 0.00 | 0.00 | 0.00 | 1020.0 | |
| 20260831093047 | 0 | 117 | 0.0 | 0.0 | 0.00 | 0.00 | 0.00 | 1020.0 | |
| 20260831091549 | 0 | 117 | 0.0 | 0.0 | 0.00 | 0.00 | 0.00 | 1020.0 | |
| 20260831090037 | 0 | 117 | 0.0 | 0.0 | 0.00 | 0.00 | 0.00 | 1020.0 | |
| 20260831084541 | 0 | 117 | 0.0 | 0.0 | 0.00 | 0.00 | 0.00 | 1019.8 | |
| 20260831083028 | 0 | 117 | 0.0 | 0.0 | 0.00 | 0.00 | 0.00 | 1019.8 | |
| 20260831081527 | 0 | 117 | 0.0 | 0.0 | 0.00 | 0.00 | 0.00 | 1019.6 | |
| 20260831080019 | 0 | 117 | 0.0 | 0.0 | 0.00 | 0.00 | 0.00 | 1019.6 | |
| 20260831074531 | 0 | 117 | 0.0 | 0.0 | 0.00 | 0.00 | 0.00 | 1019.5 | |
| 20260831073020 | 0 | 117 | 0.0 | 0.0 | 0.00 | 0.00 | 0.00 | 1019.4 | |
| 20260831071505 | 0 | 117 | 0.0 | 0.0 | 0.00 | 0.00 | 0.00 | 1019.3 | |
| 20260831070002 | 0 | 117 | 0.0 | 0.0 | 0.00 | 0.00 | 0.00 | 1019.4 | |
| 20260831064607 | 0 | 117 | 0.0 | 0.0 | 0.00 | 0.00 | 0.00 | 1019.5 | |
| 20260831063056 | 0 | 117 | 0.0 | 0.0 | 0.00 | 0.00 | 0.00 | 1019.6 | |
| 20260831061551 | 0 | 117 | 0.0 | 0.0 | 0.00 | 0.00 | 0.00 | 1019.7 | |
| 20260831060059 | 0 | 117 | 0.0 | 0.0 | 0.00 | 0.00 | 0.00 | 1019.7 | |
| 20260831054541 | 0 | 117 | 0.0 | 0.0 | 0.00 | 0.00 | 0.00 | 1019.9 | |
| 20260831053038 | 0 | 117 | 0.0 | 0.0 | 0.00 | 0.00 | 0.00 | 1020.0 | |
| 20260831051536 | 0 | 117 | 0.0 | 0.0 | 0.00 | 0.00 | 0.00 | 1020.1 | |
| 20260831050043 | 0 | 117 | 0.0 | 0.0 | 0.00 | 0.00 | 0.00 | 1020.0 | |
| 20260831044534 | 0 | 117 | 0.0 | 0.0 | 0.00 | 0.00 | 0.00 | 1020.1 | |
| 20260831043036 | 0 | 117 | 0.0 | 0.0 | 0.00 | 0.00 | 0.00 | 1020.1 | |
| 20260831041543 | 0 | 117 | 0.0 | 0.0 | 0.00 | 0.00 | 0.00 | 1020.2 | |
| 20260831040043 | 0 | 117 | 0.0 | 0.0 | 0.00 | 0.00 | 0.00 | 1020.2 | |
| 20260831034532 | 0 | 117 | 0.0 | 0.0 | 0.00 | 0.00 | 0.00 | 1020.1 | |
| 20260831033026 | 0 | 117 | 0.0 | 0.0 | 0.00 | 0.00 | 0.00 | 1020.1 | |
| 20260831031526 | 0 | 117 | 0.0 | 0.0 | 0.00 | 0.00 | 0.00 | 1020.2 | |
| 20260831030039 | 0 | 117 | 0.0 | 0.0 | 0.00 | 0.00 | 0.00 | 1020.1 | |
| 20260831024524 | 0 | 117 | 0.0 | 0.0 | 0.00 | 0.00 | 0.00 | 1020.2 | |
| 20260831023024 | 0 | 117 | 0.0 | 0.0 | 0.00 | 0.00 | 0.00 | 1020.1 | |
| 20260831021523 | 0 | 117 | 0.0 | 0.0 | 0.00 | 0.00 | 0.00 | 1020.2 | |
| 20260831020023 | 0 | 117 | 0.0 | 0.0 | 0.00 | 0.00 | 0.00 | 1020.1 | |
| 20260831014525 | 0 | 117 | 0.0 | 0.0 | 0.00 | 0.00 | 0.00 | 1020.0 | |
| 20260831013022 | 0 | 117 | 0.0 | 0.0 | 0.00 | 0.00 | 0.00 | 1020.0 | |
| 20260831011531 | 0 | 117 | 0.0 | 0.0 | 0.00 | 0.00 | 0.00 | 1019.7 | |
| 20260831010023 | 0 | 117 | 0.0 | 0.0 | 0.00 | 0.00 | 0.00 | 1019.6 | |
| 20260831004522 | 0 | 117 | 0.0 | 0.0 | 0.00 | 0.00 | 0.00 | 1019.5 | |
| 20260831003022 | 0 | 117 | 0.0 | 0.0 | 0.00 | 0.00 | 0.00 | 1019.4 | |
| 20260831001519 | 0 | 117 | 0.0 | 0.0 | 0.00 | 0.00 | 0.00 | 1019.4 | |
| 20260831000019 | 0 | 117 | 0.0 | 0.0 | 0.00 | 0.00 | 0.00 | 1019.3 | |
| 20260830234519 | 0 | 117 | 0.0 | 0.0 | 0.00 | 0.00 | 0.00 | 1019.1 | |
| 20260830233027 | 0 | 117 | 0.0 | 0.0 | 0.00 | 0.00 | 0.00 | 1019.2 | |
| 20260830231518 | 0 | 117 | 0.0 | 2.0 | 0.00 | 0.00 | 0.00 | 1019.1 | |
| 20260830230022 | 0 | 115 | 2.0 | 6.0 | 0.00 | 0.00 | 0.00 | 1019.1 | |
| 20260830224510 | 0 | 115 | 1.0 | 4.0 | 0.00 | 0.00 | 0.00 | 1018.9 | |
| 20260830223007 | 0 | 115 | 2.0 | 6.0 | 0.00 | 0.00 | 0.00 | 1018.8 | |
| 20260830221502 | 0 | 115 | 0.0 | 4.0 | 0.00 | 0.00 | 0.00 | 1018.8 | |
| 20260830220104 | 0 | 115 | 1.0 | 8.0 | 0.00 | 0.00 | 0.00 | 1018.8 | |
| 20260830214552 | 0 | 115 | 2.0 | 9.0 | 0.00 | 0.00 | 0.00 | 1018.9 | |
| 20260830213049 | 0 | 113 | 3.0 | 7.0 | 0.00 | 0.00 | 0.00 | 1018.9 | |
| 20260830211549 | 0 | 113 | 3.0 | 7.0 | 0.00 | 0.00 | 0.00 | 1018.8 | |
| 20260830210040 | 0 | 113 | 3.0 | 9.0 | 0.00 | 0.00 | 0.00 | 1018.9 | |
| 20260830204549 | 0 | 113 | 3.0 | 8.0 | 0.00 | 0.00 | 0.00 | 1019.1 | |
| 20260830203030 | 0 | 112 | 1.0 | 4.0 | 0.00 | 0.00 | 0.00 | 1019.2 | |
| 20260830201526 | 0 | 112 | 1.0 | 8.0 | 0.00 | 0.00 | 0.00 | 1019.4 | |
| 20260830200033 | 0 | 110 | 2.0 | 6.0 | 0.00 | 0.00 | 0.00 | 1019.5 | |
| 20260830194517 | 0 | 77 | 2.0 | 5.0 | 0.00 | 0.00 | 0.00 | 1019.6 | |
| 20260830193013 | 0 | 77 | 2.0 | 9.0 | 0.00 | 0.00 | 0.00 | 1019.8 | |
| 20260830191528 | 0 | 78 | 2.0 | 8.0 | 0.00 | 0.00 | 0.00 | 1020.1 | |
| 20260830190004 | 0 | 77 | 1.0 | 4.0 | 0.00 | 0.00 | 0.00 | 1020.1 | |
| 20260830184600 | 0 | 77 | 1.0 | 11.0 | 0.00 | 0.00 | 0.00 | 1020.3 | |
| 20260830183055 | 0 | 80 | 3.0 | 6.0 | 0.00 | 0.00 | 0.00 | 1020.6 | |
| 20260830181550 | 0 | 80 | 2.0 | 6.0 | 0.00 | 0.00 | 0.00 | 1020.9 | |
| 20260830180047 | 0 | 80 | 2.0 | 8.0 | 0.00 | 0.00 | 0.00 | 1021.1 | |
| 20260830174547 | 0 | 83 | 4.0 | 9.0 | 0.00 | 0.00 | 0.00 | 1021.2 | |
| 20260830173046 | 0 | 84 | 2.0 | 6.0 | 0.00 | 0.00 | 0.00 | 1021.4 | |
| 20260830171538 | 0 | 84 | 2.0 | 9.0 | 0.00 | 0.00 | 0.00 | 1021.7 | |
| 20260830170038 | 0 | 96 | 0.0 | 6.0 | 0.00 | 0.00 | 0.00 | 1021.9 | |
| 20260830164537 | 0 | 96 | 1.0 | 7.0 | 0.00 | 0.00 | 0.00 | 1022.0 | |
| 20260830163041 | 0 | 97 | 3.0 | 7.0 | 0.00 | 0.00 | 0.00 | 1022.1 | |
| 20260830161534 | 0 | 98 | 3.0 | 8.0 | 0.00 | 0.00 | 0.00 | 1022.3 | |
| 20260830160037 | 0 | 103 | 1.0 | 9.0 | 0.00 | 0.00 | 0.00 | 1022.4 | |
| 20260830154525 | 0 | 121 | 1.0 | 4.0 | 0.00 | 0.00 | 0.00 | 1022.5 | |
| 20260830153019 | 0 | 122 | 1.0 | 4.0 | 0.00 | 0.00 | 0.00 | 1022.6 | |
| 20260830151516 | 0 | 123 | 0.0 | 3.0 | 0.00 | 0.00 | 0.00 | 1022.4 | |
| 20260830150021 | 0 | 123 | 0.0 | 0.0 | 0.00 | 0.00 | 0.00 | 1022.5 | |
| 20260830144521 | 0 | 123 | 0.0 | 0.0 | 0.00 | 0.00 | 0.00 | 1022.5 | |
| 20260830143016 | 0 | 123 | 0.0 | 0.0 | 0.00 | 0.00 | 0.00 | 1022.4 | |
| 20260830141516 | 0 | 123 | 0.0 | 0.0 | 0.00 | 0.00 | 0.00 | 1022.6 | |
| 20260830140010 | 0 | 123 | 0.0 | 0.0 | 0.00 | 0.00 | 0.00 | 1022.6 | |
| 20260830134506 | 0 | 123 | 0.0 | 0.0 | 0.00 | 0.00 | 0.00 | 1022.6 | |
| 20260830133002 | 0 | 123 | 0.0 | 0.0 | 0.00 | 0.00 | 0.00 | 1022.6 | |
| 20260830131559 | 0 | 123 | 0.0 | 0.0 | 0.00 | 0.00 | 0.00 | 1022.5 | |
| 20260830130105 | 0 | 123 | 0.0 | 0.0 | 0.00 | 0.00 | 0.00 | 1022.5 | |
| 20260830124548 | 0 | 123 | 0.0 | 0.0 | 0.00 | 0.00 | 0.00 | 1022.2 | |
| 20260830123049 | 0 | 123 | 0.0 | 0.0 | 0.00 | 0.00 | 0.00 | 1022.0 | |
| 20260830123014 | 0 | 123 | 0.0 | 0.0 | 0.00 | 0.00 | 0.00 | 1022.0 | |
| 20260830121541 | 0 | 123 | 0.0 | 0.0 | 0.00 | 0.00 | 0.00 | 1022.0 | |
| 20260830120045 | 0 | 123 | 0.0 | 0.0 | 0.00 | 0.00 | 0.00 | 1021.9 |